Location: Montreal
(45.5087°N, 73.5540°W)
Time: 23:12:45
(UTC-04:00)

Envisat - Visible Passes

Search period start: 17 October 2018 00:00
Search period end: 27 October 2018 00:00
Orbit: 764 x 766 km, 98.2° (Epoch: 17 October)

Date Brightness Start Highest point End Pass type
(mag) Time Alt. Az. Time Alt. Az. Time Alt. Az.
17 Oct 3.0 19:28:28 10° SSE 19:33:28 63° ENE 19:38:30 10° N visible
17 Oct 5.6 21:09:34 10° SW 21:12:56 18° W 21:16:18 10° NW visible
18 Oct 3.8 18:52:32 10° SE 18:56:56 31° ENE 19:01:21 10° N visible
18 Oct 4.4 20:31:12 10° SSW 20:35:51 37° W 20:40:34 10° NNW visible
19 Oct 3.1 19:53:55 10° S 19:58:59 78° WSW 20:04:06 10° NNW visible
20 Oct 3.1 19:17:26 10° SE 19:22:19 50° ENE 19:27:14 10° N visible
20 Oct 5.2 20:57:44 10° SW 21:01:38 22° W 21:05:32 10° NW visible
21 Oct 4.0 18:41:45 10° ESE 18:45:51 25° ENE 18:49:58 10° N visible
21 Oct 4.0 20:19:45 10° S 20:24:37 46° W 20:29:31 10° NNW visible
22 Oct 2.9 19:42:44 10° SSE 19:47:49 85° ENE 19:52:55 10° NNW visible
22 Oct 5.9 21:25:18 10° WSW 21:27:30 13° W 21:29:42 10° WNW visible
23 Oct 3.4 19:06:29 10° SE 19:11:12 41° ENE 19:15:57 10° N visible
23 Oct 4.9 20:46:04 10° SSW 20:50:20 27° W 20:54:39 10° NW visible
24 Oct 4.2 18:31:04 10° ESE 18:34:47 21° ENE 18:38:31 10° NNE visible
24 Oct 3.5 20:08:24 10° S 20:13:23 57° W 20:18:25 10° NNW visible
25 Oct 2.9 19:31:36 10° SSE 19:36:39 69° ENE 19:41:42 10° N visible
25 Oct 5.6 21:13:05 10° SW 21:16:10 16° W 21:19:16 10° NW visible
26 Oct 3.6 18:55:35 10° SE 19:00:05 33° ENE 19:04:37 10° N visible
26 Oct 4.5 20:34:30 10° SSW 20:39:04 33° W 20:43:41 10° NNW visible
